LEO VANTAGE 1 (43113 NORAD) Tracking and Keplerian Element Data

This shows tracking and keplerian element data for the satellite.

Feedback or suggestion? Click here.




ElementValue
Catalog43113
NameLEO VANTAGE 1
Epoch Orbit4706
Epoch Day350.92164266
Epoch Year2018
RAAN49.3383
Inclination99.4581
Eccentricity0.0005985
Argument of Perigee53.6246
Mean Anonmoly306.5452
Mean Motion13.69846427
Decay Rate-5.6E-07
L11 43113U 18004C 18350.92164266 -.00000056 00000-0 -14106-4 0 9997
L22 43113 99.4581 49.3383 0005985 53.6246 306.5452 13.69846427 47065

Live tracking and technical data element details for LEO VANTAGE 1 (NORAD 43113). LEO VANTAGE 1 can be tracked NOW for your location showing map with azimuth and elevation plus other details from your city location.

Track the satellite on the map from your city or location and see movement details for azimuth, elevation, latitude, longitude, range, height, and movement on the map or in text.







IsCatalogInMostPopularTable: catalog: 43113, numindb: 138
Update: records affected: 1



GetName: 43113 LEO VANTAGE 1

Hit Count: updated at: Tue, 18 Dec 2018 21:35:45 GMT